{"data":{"norad_id":65252,"intl_designator":"2025-179T","name":"STARLINK-34961","alt_names":[],"object_type":"PAYLOAD","status":"ACTIVE","operator":null,"country":"US","launch_date":"2025-08-18","launch_site_code":"AFWTR","launch_vehicle":null,"mission":null,"orbit_class":"UNKNOWN","rcs_meters":null,"size_class":null,"mass_kg":null,"dimensions":null,"purposes":["comms"],"wikipedia_slug":null,"has_3d_model":false,"image_url":null,"decayed_at":null,"tle_current":{"epoch":"2026-05-25T01:57:26.429760Z","epoch_age_seconds":64051,"freshness":"FRESH","line1":"1 65252U 25179T   26145.08155590  .00002881  00000+0  20366-3 0  9993","line2":"2 65252  97.4485 187.9066 0001356 145.2163 214.9153 15.05651905 43327","mean_motion":15.05651905,"eccentricity":0.0001356,"inclination_deg":97.4485,"raan_deg":187.9066,"arg_perigee_deg":145.2163,"mean_anomaly_deg":214.9153,"bstar":0.00020366,"rev_number":4332,"period_min":95.639635909072,"perigee_km":548.56592234931,"apogee_km":550.44469894396,"semimajor_km":6927.6423106466,"source":"CELESTRAK","updated_at":"2026-05-25T13:38:20.727642Z"}}}